status,avgMeasuredTime,avgSpeed,extID,medianMeasuredTime,TIMESTAMP,vehicleCount,_id,REPORT_ID
OK,103,50,924,103,2014-08-01T08:00:00,6,20746979,195286
OK,109,47,924,109,2014-08-01T08:05:00,8,20747428,195286
OK,109,47,924,109,2014-08-01T08:10:00,10,20747801,195286
OK,101,51,924,101,2014-08-01T08:15:00,9,20748250,195286
OK,120,43,924,120,2014-08-01T08:20:00,11,20748699,195286
OK,110,47,924,110,2014-08-01T08:25:00,11,20749148,195286
OK,90,58,924,90,2014-08-01T08:30:00,7,20749597,195286
OK,111,47,924,111,2014-08-01T08:35:00,12,20750046,195286
OK,108,48,924,108,2014-08-01T08:40:00,18,20750495,195286
OK,104,50,924,104,2014-08-01T08:45:00,8,20750944,195286
OK,114,45,924,114,2014-08-01T08:50:00,9,20751393,195286
OK,113,46,924,113,2014-08-01T08:55:00,13,20751842,195286
OK,110,47,924,110,2014-08-01T09:00:00,7,20752291,195286
OK,104,50,924,104,2014-08-01T09:05:00,10,20752740,195286
OK,102,51,924,102,2014-08-01T09:10:00,8,20753189,195286
OK,107,48,924,107,2014-08-01T09:20:00,14,20754087,195286
OK,109,47,924,109,2014-08-01T09:25:00,10,20754536,195286
OK,106,49,924,106,2014-08-01T09:30:00,11,20754985,195286
OK,104,50,924,104,2014-08-01T09:35:00,13,20755434,195286
OK,94,55,924,94,2014-08-01T09:40:00,6,20755883,195286
OK,94,55,924,94,2014-08-01T09:45:00,10,20756332,195286
OK,99,52,924,99,2014-08-01T09:50:00,13,20756781,195286
OK,97,53,924,97,2014-08-01T09:55:00,9,20757230,195286
OK,92,56,924,92,2014-08-01T10:00:00,6,20757679,195286
OK,108,48,924,108,2014-08-01T10:05:00,7,20758128,195286
OK,96,54,924,96,2014-08-01T10:15:00,10,20759026,195286
OK,106,49,924,106,2014-08-01T10:20:00,9,20759475,195286
OK,89,58,924,89,2014-08-01T10:25:00,9,20759924,195286
OK,89,58,924,89,2014-08-01T10:30:00,9,20760373,195286
OK,94,55,924,94,2014-08-01T10:35:00,6,20760822,195286
OK,88,59,924,88,2014-08-01T10:40:00,3,20761271,195286
OK,87,60,924,87,2014-08-01T10:45:00,4,20761720,195286
OK,106,49,924,106,2014-08-01T10:50:00,9,20762169,195286
OK,110,47,924,110,2014-08-01T10:55:00,11,20762618,195286
OK,106,49,924,106,2014-08-01T11:00:00,12,20763067,195286
OK,96,54,924,96,2014-08-01T11:05:00,8,20763516,195286
OK,85,61,924,85,2014-08-01T11:10:00,4,20763965,195286
OK,109,47,924,109,2014-08-01T11:15:00,7,20764413,195286
OK,107,48,924,107,2014-08-01T11:20:00,9,20764862,195286
OK,106,49,924,106,2014-08-01T11:25:00,6,20765311,195286
OK,97,53,924,97,2014-08-01T11:30:00,5,20765760,195286
OK,96,54,924,96,2014-08-01T11:35:00,10,20766209,195286
OK,95,55,924,95,2014-08-01T11:40:00,9,20766658,195286
OK,99,52,924,99,2014-08-01T11:45:00,10,20767107,195286
OK,101,51,924,101,2014-08-01T11:50:00,12,20767556,195286
OK,123,42,924,123,2014-08-01T11:55:00,12,20768005,195286
OK,123,42,924,123,2014-08-01T12:00:00,7,20768454,195286
OK,100,52,924,100,2014-08-01T12:10:00,6,20769352,195286
OK,112,46,924,112,2014-08-01T12:15:00,3,20769801,195286
OK,111,47,924,111,2014-08-01T12:20:00,9,20770250,195286
OK,105,49,924,105,2014-08-01T12:25:00,12,20770699,195286
OK,101,51,924,101,2014-08-01T12:30:00,8,20771148,195286
OK,100,52,924,100,2014-08-01T12:35:00,7,20771597,195286
OK,106,49,924,106,2014-08-01T12:40:00,6,20772046,195286
OK,102,51,924,102,2014-08-01T12:45:00,2,20772495,195286
OK,106,49,924,106,2014-08-01T12:50:00,7,20772944,195286
OK,107,48,924,107,2014-08-01T12:55:00,11,20773393,195286
OK,118,44,924,118,2014-08-01T13:00:00,4,20773842,195286
OK,132,39,924,132,2014-08-01T13:05:00,7,20774291,195286
OK,119,43,924,119,2014-08-01T13:10:00,11,20774740,195286
OK,106,49,924,106,2014-08-01T13:15:00,9,20775189,195286
OK,117,44,924,117,2014-08-01T13:20:00,9,20775638,195286
OK,115,45,924,115,2014-08-01T13:25:00,11,20776087,195286
OK,120,43,924,120,2014-08-01T13:30:00,9,20776536,195286
OK,120,43,924,120,2014-08-01T13:35:00,5,20776985,195286
OK,132,39,924,132,2014-08-01T13:40:00,7,20777434,195286
OK,132,39,924,132,2014-08-01T13:45:00,6,20777883,195286
OK,108,48,924,108,2014-08-01T13:50:00,3,20778332,195286
OK,101,51,924,101,2014-08-01T14:00:00,9,20779230,195286
OK,101,51,924,101,2014-08-01T14:05:00,11,20779679,195286
OK,104,50,924,104,2014-08-01T14:10:00,11,20780128,195286
OK,104,50,924,104,2014-08-01T14:15:00,7,20780577,195286
OK,100,52,924,100,2014-08-01T14:20:00,5,20781026,195286
OK,120,43,924,120,2014-08-01T14:25:00,9,20781475,195286
OK,137,38,924,137,2014-08-01T14:30:00,6,20781924,195286
OK,105,49,924,105,2014-08-01T14:35:00,3,20782373,195286
OK,102,51,924,102,2014-08-01T14:40:00,4,20782822,195286
OK,102,51,924,102,2014-08-01T14:45:00,8,20783271,195286
OK,100,52,924,100,2014-08-01T14:50:00,8,20783720,195286
OK,101,51,924,101,2014-08-01T14:55:00,8,20784169,195286
OK,107,48,924,107,2014-08-01T15:00:00,7,20784618,195286
OK,111,47,924,111,2014-08-01T15:05:00,3,20785067,195286
OK,80,65,924,80,2014-08-01T15:10:00,5,20785516,195286
OK,81,64,924,81,2014-08-01T15:15:00,6,20785965,195286
OK,101,51,924,101,2014-08-01T15:20:00,8,20786414,195286
OK,104,50,924,104,2014-08-01T15:25:00,9,20786863,195286
OK,84,62,924,84,2014-08-01T15:30:00,7,20787312,195286
OK,87,60,924,87,2014-08-01T15:35:00,12,20787761,195286
OK,97,53,924,97,2014-08-01T15:40:00,8,20788210,195286
OK,87,60,924,87,2014-08-01T15:45:00,3,20788659,195286
OK,92,56,924,92,2014-08-01T15:50:00,0,20789108,195286
OK,94,55,924,94,2014-08-01T15:55:00,4,20789557,195286
OK,88,59,924,88,2014-08-01T16:00:00,5,20790006,195286
OK,88,59,924,88,2014-08-01T16:05:00,3,20790455,195286
OK,87,60,924,87,2014-08-01T16:10:00,7,20790904,195286
OK,91,57,924,91,2014-08-01T16:15:00,10,20791353,195286
OK,104,50,924,104,2014-08-01T16:20:00,10,20791802,195286
OK,96,54,924,96,2014-08-01T16:25:00,4,20792251,195286
OK,95,55,924,95,2014-08-01T16:30:00,3,20792700,195286
OK,90,58,924,90,2014-08-01T16:35:00,6,20793149,195286
OK,85,61,924,85,2014-08-01T16:40:00,6,20793598,195286
OK,84,62,924,84,2014-08-01T16:45:00,4,20794047,195286
OK,89,58,924,89,2014-08-01T16:50:00,3,20794496,195286
OK,91,57,924,91,2014-08-01T16:55:00,4,20794945,195286
OK,97,53,924,97,2014-08-01T17:00:00,2,20795394,195286
OK,77,67,924,77,2014-08-01T17:05:00,2,20795843,195286
OK,85,61,924,85,2014-08-01T17:10:00,3,20796292,195286
OK,82,63,924,82,2014-08-01T17:15:00,4,20796741,195286
OK,168,31,924,168,2014-08-01T17:20:00,1,20797190,195286
OK,120,43,924,120,2014-08-01T17:25:00,2,20797639,195286
OK,72,72,924,72,2014-08-01T17:30:00,0,20798088,195286
OK,72,72,924,72,2014-08-01T17:35:00,0,20798537,195286
OK,110,47,924,110,2014-08-01T17:40:00,1,20798986,195286
OK,110,47,924,110,2014-08-01T17:45:00,0,20799435,195286
OK,110,47,924,110,2014-08-01T17:50:00,0,20799884,195286
OK,73,71,924,73,2014-08-01T17:55:00,1,20800333,195286
OK,135,38,924,135,2014-08-01T18:00:00,4,20800782,195286
OK,135,38,924,135,2014-08-01T18:05:00,4,20801231,195286
OK,70,74,924,70,2014-08-01T18:10:00,2,20801680,195286
OK,80,65,924,80,2014-08-01T18:15:00,1,20802129,195286
OK,80,65,924,80,2014-08-01T18:20:00,0,20802578,195286
OK,83,63,924,83,2014-08-01T18:25:00,4,20803027,195286
OK,84,62,924,84,2014-08-01T18:30:00,5,20803476,195286
OK,93,56,924,93,2014-08-01T18:35:00,1,20803925,195286
OK,87,60,924,87,2014-08-01T18:40:00,1,20804374,195286
OK,81,64,924,81,2014-08-01T18:45:00,2,20804823,195286
OK,81,64,924,81,2014-08-01T18:50:00,2,20805272,195286
OK,84,62,924,84,2014-08-01T18:55:00,0,20805721,195286
OK,84,62,924,84,2014-08-01T19:00:00,0,20806170,195286
OK,80,65,924,80,2014-08-01T19:05:00,1,20806619,195286
OK,73,71,924,73,2014-08-01T19:10:00,3,20807068,195286
OK,73,71,924,73,2014-08-01T19:15:00,3,20807517,195286
OK,100,52,924,100,2014-08-01T19:20:00,1,20807966,195286
OK,120,43,924,120,2014-08-01T19:25:00,2,20808415,195286
OK,74,70,924,74,2014-08-01T19:30:00,3,20808864,195286
OK,73,71,924,73,2014-08-01T19:35:00,2,20809313,195286
OK,90,58,924,90,2014-08-01T19:40:00,3,20809762,195286
OK,90,58,924,90,2014-08-01T19:45:00,3,20810211,195286
OK,85,61,924,85,2014-08-01T19:50:00,1,20810660,195286
OK,85,61,924,85,2014-08-01T19:55:00,5,20811109,195286
OK,99,52,924,99,2014-08-01T22:00:00,0,20816838,195286
OK,87,60,924,87,2014-08-02T00:00:00,0,20823277,195286
OK,87,60,924,87,2014-08-02T00:05:00,0,20823726,195286
OK,87,60,924,87,2014-08-02T00:10:00,0,20824175,195286
OK,87,60,924,87,2014-08-02T00:15:00,0,20824624,195286
OK,87,60,924,87,2014-08-02T00:20:00,0,20825073,195286
OK,80,65,924,80,2014-08-02T00:25:00,0,20825522,195286
OK,80,65,924,80,2014-08-02T00:30:00,0,20825971,195286
OK,80,65,924,80,2014-08-02T00:35:00,0,20826420,195286
OK,80,65,924,80,2014-08-02T00:40:00,0,20826869,195286
OK,80,65,924,80,2014-08-02T00:45:00,0,20827318,195286
OK,80,65,924,80,2014-08-02T00:50:00,0,20827767,195286
OK,80,65,924,80,2014-08-02T00:55:00,0,20828216,195286
OK,80,65,924,80,2014-08-02T01:00:00,0,20828665,195286
OK,80,65,924,80,2014-08-02T01:05:00,0,20829114,195286
OK,80,65,924,80,2014-08-02T01:10:00,0,20829563,195286
OK,80,65,924,80,2014-08-02T01:15:00,0,20830012,195286
OK,80,65,924,80,2014-08-02T01:20:00,0,20830461,195286
OK,67,78,924,67,2014-08-02T01:25:00,0,20830910,195286
OK,67,78,924,67,2014-08-02T01:30:00,0,20831359,195286
OK,67,78,924,67,2014-08-02T01:35:00,0,20831808,195286
OK,67,78,924,67,2014-08-02T01:40:00,0,20832257,195286
OK,67,78,924,67,2014-08-02T01:45:00,0,20832706,195286
OK,67,78,924,67,2014-08-02T01:50:00,0,20833155,195286
OK,67,78,924,67,2014-08-02T01:55:00,0,20833604,195286
OK,67,78,924,67,2014-08-02T02:00:00,0,20834053,195286
OK,70,74,924,70,2014-08-02T02:05:00,1,20834502,195286
OK,70,74,924,70,2014-08-02T02:10:00,1,20834951,195286
OK,91,57,924,91,2014-08-02T02:15:00,0,20835400,195286
OK,91,57,924,91,2014-08-02T02:20:00,0,20835849,195286
OK,91,57,924,91,2014-08-02T02:25:00,0,20836298,195286
OK,91,57,924,91,2014-08-02T02:30:00,0,20836747,195286
OK,91,57,924,91,2014-08-02T02:35:00,0,20837196,195286
OK,91,57,924,91,2014-08-02T02:40:00,0,20837645,195286
OK,91,57,924,91,2014-08-02T02:45:00,0,20838094,195286
OK,91,57,924,91,2014-08-02T02:50:00,0,20838543,195286
OK,91,57,924,91,2014-08-02T02:55:00,0,20838992,195286
OK,91,57,924,91,2014-08-02T03:00:00,0,20839441,195286
OK,91,57,924,91,2014-08-02T03:05:00,0,20839890,195286
OK,91,57,924,91,2014-08-02T03:10:00,0,20840339,195286
OK,91,57,924,91,2014-08-02T03:15:00,0,20840788,195286
OK,81,64,924,81,2014-08-02T03:20:00,1,20841237,195286
OK,81,64,924,81,2014-08-02T03:25:00,0,20841686,195286
OK,60,87,924,60,2014-08-02T03:30:00,1,20842135,195286
OK,60,87,924,60,2014-08-02T03:35:00,1,20842584,195286
OK,60,87,924,60,2014-08-02T03:40:00,0,20843033,195286
OK,55,95,924,55,2014-08-02T03:45:00,1,20843482,195286
OK,65,80,924,65,2014-08-02T03:50:00,2,20843931,195286
OK,78,67,924,78,2014-08-02T03:55:00,1,20844380,195286
OK,72,72,924,72,2014-08-02T06:00:00,1,20851834,195286
OK,72,72,924,72,2014-08-02T06:05:00,1,20852283,195286
OK,101,51,924,101,2014-08-02T06:10:00,1,20852732,195286
OK,117,44,924,117,2014-08-02T06:15:00,2,20853181,195286
OK,134,39,924,134,2014-08-02T06:20:00,0,20853630,195286
OK,74,70,924,74,2014-08-02T06:25:00,1,20854079,195286
OK,86,60,924,86,2014-08-02T06:30:00,5,20854528,195286
OK,86,60,924,86,2014-08-02T06:35:00,3,20854977,195286
OK,203,25,924,203,2014-08-02T06:40:00,1,20855426,195286
OK,203,25,924,203,2014-08-02T06:45:00,1,20855875,195286
OK,88,59,924,88,2014-08-02T06:50:00,2,20856324,195286
OK,88,59,924,88,2014-08-02T06:55:00,3,20856773,195286
OK,67,78,924,67,2014-08-02T07:00:00,0,20857222,195286
OK,88,59,924,88,2014-08-02T07:05:00,2,20857671,195286
OK,88,59,924,88,2014-08-02T07:10:00,0,20858120,195286
OK,80,65,924,80,2014-08-02T07:15:00,3,20858569,195286
OK,80,65,924,80,2014-08-02T07:20:00,9,20859018,195286
OK,90,58,924,90,2014-08-02T07:25:00,9,20859467,195286
OK,98,53,924,98,2014-08-02T07:30:00,5,20859916,195286
OK,100,52,924,100,2014-08-02T07:35:00,3,20860365,195286
OK,82,63,924,82,2014-08-02T07:40:00,3,20860814,195286
OK,93,56,924,93,2014-08-02T07:45:00,4,20861263,195286
OK,105,49,924,105,2014-08-02T07:50:00,5,20861712,195286
OK,116,45,924,116,2014-08-02T07:55:00,3,20862161,195286
OK,102,51,924,102,2014-08-02T08:00:00,4,20862610,195286
OK,83,63,924,83,2014-08-02T08:05:00,4,20863059,195286
OK,89,58,924,89,2014-08-02T08:10:00,8,20863508,195286
OK,92,56,924,92,2014-08-02T08:15:00,8,20863957,195286
OK,106,49,924,106,2014-08-02T08:20:00,5,20864406,195286
OK,103,50,924,103,2014-08-02T08:25:00,6,20864855,195286
OK,98,53,924,98,2014-08-02T08:30:00,7,20865304,195286
OK,111,47,924,111,2014-08-02T08:35:00,5,20865753,195286
OK,112,46,924,112,2014-08-02T08:40:00,9,20866202,195286
OK,91,57,924,91,2014-08-02T08:45:00,2,20866651,195286
OK,112,46,924,112,2014-08-02T08:50:00,5,20867100,195286
OK,96,54,924,96,2014-08-02T08:55:00,8,20867549,195286
OK,87,60,924,87,2014-08-02T09:00:00,10,20867998,195286
OK,103,50,924,103,2014-08-02T09:05:00,7,20868447,195286
OK,94,55,924,94,2014-08-02T09:10:00,9,20868896,195286
OK,96,54,924,96,2014-08-02T09:15:00,11,20869345,195286
OK,100,52,924,100,2014-08-02T09:20:00,8,20869794,195286
OK,92,56,924,92,2014-08-02T09:25:00,6,20870243,195286
OK,92,56,924,92,2014-08-02T09:30:00,6,20870692,195286
OK,96,54,924,96,2014-08-02T09:35:00,6,20871141,195286
OK,104,50,924,104,2014-08-02T09:40:00,6,20871590,195286
OK,102,51,924,102,2014-08-02T09:45:00,5,20872039,195286
OK,95,55,924,95,2014-08-02T09:50:00,10,20872488,195286
OK,94,55,924,94,2014-08-02T09:55:00,11,20872937,195286
OK,99,52,924,99,2014-08-02T10:00:00,10,20873386,195286
OK,96,54,924,96,2014-08-02T10:05:00,6,20873835,195286
OK,100,52,924,100,2014-08-02T10:10:00,4,20874284,195286
OK,90,58,924,90,2014-08-02T10:15:00,5,20874733,195286
OK,92,56,924,92,2014-08-02T10:20:00,4,20875182,195286
OK,103,50,924,103,2014-08-02T10:25:00,3,20875631,195286
OK,94,55,924,94,2014-08-02T10:30:00,9,20876080,195286
OK,99,52,924,99,2014-08-02T10:35:00,9,20876529,195286
OK,103,50,924,103,2014-08-02T10:40:00,9,20876978,195286
OK,102,51,924,102,2014-08-02T10:45:00,10,20877427,195286
OK,102,51,924,102,2014-08-02T10:50:00,4,20877876,195286
OK,101,51,924,101,2014-08-02T10:55:00,4,20878325,195286
OK,98,53,924,98,2014-08-02T11:00:00,5,20878774,195286
OK,95,55,924,95,2014-08-02T11:05:00,5,20879223,195286
OK,94,55,924,94,2014-08-02T11:10:00,5,20879672,195286
OK,97,53,924,97,2014-08-02T11:15:00,6,20880121,195286
OK,103,50,924,103,2014-08-02T11:20:00,7,20880570,195286
OK,108,48,924,108,2014-08-02T11:25:00,5,20881019,195286
OK,123,42,924,123,2014-08-02T11:30:00,1,20881468,195286
OK,123,42,924,123,2014-08-02T11:35:00,0,20881917,195286
OK,123,42,924,123,2014-08-02T11:40:00,0,20882366,195286
OK,95,55,924,95,2014-08-02T11:45:00,3,20882815,195286
OK,97,53,924,97,2014-08-02T11:50:00,4,20883264,195286
OK,100,52,924,100,2014-08-02T11:55:00,1,20883713,195286
OK,102,51,924,102,2014-08-02T12:00:00,1,20884162,195286
OK,102,51,924,102,2014-08-02T12:05:00,1,20884611,195286
OK,88,59,924,88,2014-08-02T12:10:00,4,20885060,195286
OK,108,48,924,108,2014-08-02T12:15:00,4,20885509,195286
OK,100,52,924,100,2014-08-02T12:20:00,7,20885958,195286
OK,94,55,924,94,2014-08-02T12:25:00,8,20886407,195286
OK,99,52,924,99,2014-08-02T12:30:00,5,20886856,195286
OK,89,58,924,89,2014-08-02T12:35:00,5,20887305,195286
OK,83,63,924,83,2014-08-02T12:40:00,4,20887754,195286
OK,91,57,924,91,2014-08-02T12:45:00,2,20888203,195286
OK,105,49,924,105,2014-08-02T12:50:00,7,20888652,195286
OK,116,45,924,116,2014-08-02T12:55:00,7,20889101,195286
OK,116,45,924,116,2014-08-02T13:00:00,3,20889550,195286
OK,92,56,924,92,2014-08-02T13:05:00,1,20889999,195286
OK,100,52,924,100,2014-08-02T13:10:00,2,20890448,195286
OK,100,52,924,100,2014-08-02T13:15:00,4,20890897,195286
OK,89,58,924,89,2014-08-02T13:20:00,5,20891346,195286
OK,101,51,924,101,2014-08-02T13:25:00,8,20891795,195286
OK,101,51,924,101,2014-08-02T13:30:00,4,20892244,195286
OK,216,24,924,216,2014-08-02T13:35:00,0,20892693,195286
OK,84,62,924,84,2014-08-02T13:40:00,3,20893142,195286
OK,89,58,924,89,2014-08-02T13:45:00,5,20893591,195286
OK,126,41,924,126,2014-08-02T13:50:00,1,20894040,195286
OK,96,54,924,96,2014-08-02T13:55:00,5,20894489,195286
OK,96,54,924,96,2014-08-02T14:00:00,5,20894938,195286
OK,103,50,924,103,2014-08-02T14:05:00,3,20895387,195286
OK,111,47,924,111,2014-08-02T14:10:00,1,20895836,195286
OK,108,48,924,108,2014-08-02T14:15:00,1,20896285,195286
OK,103,50,924,103,2014-08-02T14:20:00,1,20896734,195286
OK,98,53,924,98,2014-08-02T14:25:00,2,20897183,195286
OK,90,58,924,90,2014-08-02T14:30:00,5,20897632,195286
OK,83,63,924,83,2014-08-02T14:35:00,6,20898081,195286
OK,99,52,924,99,2014-08-02T14:40:00,5,20898530,195286
OK,93,56,924,93,2014-08-02T14:45:00,2,20898979,195286
OK,84,62,924,84,2014-08-02T14:50:00,2,20899428,195286
OK,99,52,924,99,2014-08-02T14:55:00,3,20899877,195286
OK,99,52,924,99,2014-08-02T15:00:00,3,20900326,195286
OK,94,55,924,94,2014-08-02T15:05:00,2,20900775,195286
OK,87,60,924,87,2014-08-02T15:10:00,4,20901224,195286
OK,102,51,924,102,2014-08-02T15:15:00,4,20901673,195286
OK,102,51,924,102,2014-08-02T15:20:00,2,20902122,195286
OK,102,51,924,102,2014-08-02T15:25:00,0,20902571,195286
OK,101,51,924,101,2014-08-02T15:30:00,2,20903020,195286
OK,95,55,924,95,2014-08-02T15:35:00,9,20903469,195286
OK,95,55,924,95,2014-08-02T15:40:00,7,20903918,195286
OK,110,47,924,110,2014-08-02T15:45:00,4,20904367,195286
OK,105,49,924,105,2014-08-02T15:50:00,3,20904816,195286
OK,105,49,924,105,2014-08-02T15:55:00,0,20905265,195286
OK,105,49,924,105,2014-08-02T16:00:00,0,20905714,195286
OK,103,50,924,103,2014-08-02T16:05:00,1,20906163,195286
OK,104,50,924,104,2014-08-02T16:10:00,2,20906612,195286
OK,106,49,924,106,2014-08-02T16:15:00,3,20907061,195286
OK,105,49,924,105,2014-08-02T16:20:00,3,20907510,195286
OK,104,50,924,104,2014-08-02T16:25:00,5,20907959,195286
OK,93,56,924,93,2014-08-02T16:30:00,5,20908408,195286
OK,74,70,924,74,2014-08-02T16:35:00,3,20908857,195286
OK,74,70,924,74,2014-08-02T16:40:00,0,20909306,195286
OK,78,67,924,78,2014-08-02T16:45:00,2,20909755,195286
OK,87,60,924,87,2014-08-02T16:50:00,1,20910204,195286
OK,87,60,924,87,2014-08-02T16:55:00,1,20910653,195286
OK,113,46,924,113,2014-08-02T17:00:00,3,20911102,195286
OK,108,48,924,108,2014-08-02T17:05:00,7,20911551,195286
OK,107,48,924,107,2014-08-02T17:10:00,5,20912000,195286
OK,86,60,924,86,2014-08-02T17:15:00,3,20912449,195286
OK,90,58,924,90,2014-08-02T17:20:00,2,20912898,195286
OK,93,56,924,93,2014-08-02T17:25:00,1,20913347,195286
OK,95,55,924,95,2014-08-02T17:30:00,2,20913796,195286
OK,87,60,924,87,2014-08-02T17:35:00,3,20914245,195286
OK,81,64,924,81,2014-08-02T17:40:00,4,20914694,195286
OK,84,62,924,84,2014-08-02T17:45:00,3,20915143,195286
OK,81,64,924,81,2014-08-02T17:50:00,2,20915592,195286
OK,81,64,924,81,2014-08-02T17:55:00,2,20916041,195286
OK,81,64,924,81,2014-08-02T18:00:00,2,20916490,195286
OK,77,67,924,77,2014-08-02T18:05:00,2,20916939,195286
OK,72,72,924,72,2014-08-02T18:10:00,0,20917388,195286
OK,72,72,924,72,2014-08-02T18:15:00,0,20917837,195286
OK,60,87,924,60,2014-08-02T18:20:00,1,20918286,195286
OK,69,75,924,69,2014-08-02T18:25:00,2,20918735,195286
OK,78,67,924,78,2014-08-02T18:30:00,1,20919184,195286
OK,103,50,924,103,2014-08-02T18:35:00,1,20919633,195286
OK,88,59,924,88,2014-08-02T18:40:00,3,20920082,195286
OK,86,60,924,86,2014-08-02T18:45:00,2,20920531,195286
OK,86,60,924,86,2014-08-02T18:50:00,0,20920980,195286
OK,92,56,924,92,2014-08-02T18:55:00,1,20921429,195286
OK,92,56,924,92,2014-08-02T19:00:00,3,20921878,195286
OK,99,52,924,99,2014-08-02T19:05:00,2,20922327,195286
OK,75,69,924,75,2014-08-02T19:10:00,0,20922776,195286
OK,72,72,924,72,2014-08-02T19:15:00,1,20923225,195286
OK,72,72,924,72,2014-08-02T19:20:00,3,20923674,195286
OK,72,72,924,72,2014-08-02T19:25:00,2,20924123,195286
OK,92,56,924,92,2014-08-02T19:30:00,1,20924572,195286
OK,92,56,924,92,2014-08-02T19:35:00,3,20925021,195286
OK,93,56,924,93,2014-08-02T19:40:00,3,20925470,195286
OK,90,58,924,90,2014-08-02T19:45:00,2,20925919,195286
OK,104,50,924,104,2014-08-02T19:50:00,0,20926368,195286
OK,89,58,924,89,2014-08-02T19:55:00,1,20926817,195286
OK,89,58,924,89,2014-08-02T20:00:00,2,20927266,195286
OK,89,58,924,89,2014-08-02T20:05:00,0,20927715,195286
OK,107,48,924,107,2014-08-02T20:10:00,1,20928164,195286
OK,107,48,924,107,2014-08-02T20:15:00,1,20928613,195286
OK,107,48,924,107,2014-08-02T20:20:00,0,20929062,195286
OK,106,49,924,106,2014-08-02T20:25:00,1,20929511,195286
OK,91,57,924,91,2014-08-02T20:30:00,2,20929960,195286
OK,77,67,924,77,2014-08-02T20:35:00,3,20930409,195286
OK,98,53,924,98,2014-08-02T20:40:00,2,20930858,195286
OK,108,48,924,108,2014-08-02T20:45:00,0,20931307,195286
OK,108,48,924,108,2014-08-02T20:50:00,0,20931756,195286
OK,75,69,924,75,2014-08-02T20:55:00,2,20932205,195286
OK,82,63,924,82,2014-08-02T21:00:00,4,20932654,195286
OK,87,60,924,87,2014-08-02T21:05:00,3,20933103,195286
OK,86,60,924,86,2014-08-02T21:10:00,2,20933552,195286
OK,80,65,924,80,2014-08-02T21:15:00,1,20934001,195286
OK,85,61,924,85,2014-08-02T21:20:00,1,20934450,195286
OK,85,61,924,85,2014-08-02T21:25:00,2,20934899,195286
OK,77,67,924,77,2014-08-02T21:30:00,3,20935348,195286
OK,82,63,924,82,2014-08-02T21:35:00,2,20935797,195286
OK,87,60,924,87,2014-08-02T21:40:00,0,20936246,195286
OK,94,55,924,94,2014-08-02T21:45:00,1,20936695,195286
OK,94,55,924,94,2014-08-02T21:50:00,1,20937144,195286
OK,73,71,924,73,2014-08-02T21:55:00,1,20937593,195286
OK,73,71,924,73,2014-08-02T22:00:00,0,20938042,195286
OK,74,70,924,74,2014-08-02T22:05:00,1,20938491,195286
OK,74,70,924,74,2014-08-02T22:10:00,1,20938940,195286
OK,74,70,924,74,2014-08-02T22:15:00,0,20939389,195286
OK,88,59,924,88,2014-08-02T22:20:00,2,20939838,195286
OK,80,65,924,80,2014-08-02T22:25:00,3,20940287,195286
OK,78,67,924,78,2014-08-02T22:30:00,0,20940736,195286
OK,78,67,924,78,2014-08-02T22:35:00,0,20941185,195286
OK,91,57,924,91,2014-08-02T22:40:00,1,20941634,195286
OK,83,63,924,83,2014-08-02T22:45:00,2,20942083,195286
OK,65,80,924,65,2014-08-02T22:50:00,1,20942532,195286
OK,65,80,924,65,2014-08-02T22:55:00,0,20942981,195286
OK,65,80,924,65,2014-08-02T23:00:00,0,20943430,195286
OK,65,80,924,65,2014-08-02T23:10:00,0,20943879,195286
OK,94,55,924,94,2014-08-02T23:15:00,2,20944328,195286
OK,96,54,924,96,2014-08-02T23:20:00,1,20944777,195286
OK,96,54,924,96,2014-08-02T23:25:00,0,20945226,195286
OK,96,54,924,96,2014-08-02T23:30:00,0,20945675,195286
OK,96,54,924,96,2014-08-02T23:35:00,0,20946124,195286
OK,96,54,924,96,2014-08-02T23:40:00,0,20946573,195286
OK,74,70,924,74,2014-08-02T23:45:00,1,20947022,195286
OK,74,70,924,74,2014-08-02T23:50:00,1,20947471,195286
OK,76,68,924,76,2014-08-02T23:55:00,0,20947920,195286
OK,76,68,924,76,2014-08-03T00:00:00,0,20948369,195286
OK,76,68,924,76,2014-08-03T00:05:00,0,20948818,195286
OK,76,68,924,76,2014-08-03T00:10:00,0,20949266,195286
OK,76,68,924,76,2014-08-03T00:15:00,0,20949715,195286
OK,76,68,924,76,2014-08-03T00:20:00,0,20950164,195286
OK,76,68,924,76,2014-08-03T00:25:00,0,20950613,195286
OK,102,51,924,102,2014-08-03T00:30:00,1,20951062,195286
OK,102,51,924,102,2014-08-03T00:35:00,1,20951511,195286
OK,102,51,924,102,2014-08-03T00:40:00,0,20951960,195286
OK,102,51,924,102,2014-08-03T00:45:00,0,20952409,195286
OK,102,51,924,102,2014-08-03T00:50:00,0,20952858,195286
OK,102,51,924,102,2014-08-03T00:55:00,0,20953307,195286
OK,102,51,924,102,2014-08-03T01:00:00,0,20953756,195286
OK,102,51,924,102,2014-08-03T01:05:00,0,20954205,195286
OK,102,51,924,102,2014-08-03T01:10:00,0,20954654,195286
OK,102,51,924,102,2014-08-03T01:15:00,0,20955103,195286
OK,102,51,924,102,2014-08-03T01:20:00,0,20955552,195286
OK,102,51,924,102,2014-08-03T01:25:00,0,20956001,195286
OK,102,51,924,102,2014-08-03T01:30:00,0,20956450,195286
OK,102,51,924,102,2014-08-03T01:35:00,0,20956899,195286
OK,102,51,924,102,2014-08-03T01:40:00,0,20957348,195286
OK,102,51,924,102,2014-08-03T01:45:00,0,20957797,195286
OK,102,51,924,102,2014-08-03T01:50:00,0,20958246,195286
OK,102,51,924,102,2014-08-03T01:55:00,0,20958695,195286